Погода в Кобылецкой Поляне

Украина / Закарпатская область     48°03′06″N   24°03′36″E
темп.,
°C
ветер,
м/с
пор.,
м/с
влажн.,
%
обл.,
%
осадки,
мм/ч
давл.,
гПа
погр.,
м
24 января, пн
пн2423:00−17в11965 0.0 103418
02:00−18в11978 0.0 103718
05:00−19в11975 0.0 103817
08:00−19в11975 0.0 104016
11:00−10ююв11804 0.0 1039192
14:00−7юз11794 0.0 1037262
17:00−12ссв009626 0.0 10389
20:00−16вюв11978 0.0 103911
25 января, вт
вт2523:00−18в119711 0.0 103911
02:00−19в119751 0.0 103910
05:00−19в119753 0.0 103810
08:00−19в119857 0.0 103710
11:00−11ююв118991 0.0 1035171
14:00−8з0184100 0.0 1032299
17:00−11ююв009688 0.0 103211
20:00−12вюв119796 0.1 103213
26 января, ср
ср2623:00−12в119796 0.2 103211
02:00−12всв119795 0.4 103114
05:00−12в119790 0.2 103013
08:00−13вюв1197100 0.3 103012
11:00−8ююз108998 0.0 1030208
14:00−6з118999 0.1 1028293
17:00−9вюв009882 0.0 102910
20:00−11вюв119790 0.1 103011
27 января, чт
чт2723:00−12вюв119794 0.1 103112
02:00−9вюв119699 0.4 103044
05:00−9вюв119799 0.4 102922
08:00−8вюв1197100 1.1 102934
11:00−5юв1194100 0.8 1027230
14:00−3ююв0194100 1.6 1025307
17:00−3св0098100 0.7 102441
20:00−3юв1298100 1.4 102264
28 января, пт
пт2823:00−3ююв2398100 1.2 1021141
02:00−3юв2398100 3.7 1019138
05:00−3юв1398100 2.8 1017118
08:00−3ююв1298100 5.3 101866
11:00−1ююз2397100 1.8 1018326
14:00−1юз2499100 4.4 1017347
17:00−1зюз2699100 1.5 1018483
20:00−2з1598100 2.1 1020319